Regional Weather Roundup
Issued by NWS Grand Forks, ND

Home | Current Version | Previous Version | Graphics & Text | Print | Product List | Glossary On
Versions: 1 2 3 4 5 6 7 8 9 10 11 12 13 14 15 16 17 18 19 20 21 22 23 24 25 26 27 28 29 30 31 32 33 34 35 36 37 38 39 40 41 42 43 44 45 46 47 48 49 50
000
ASUS43 KFGF 230631
RWRFGF
PRAIRIE TO PINES  WEATHER ROUNDUP
NATIONAL WEATHER SERVICE EASTERN NORTH DAKOTA/GRAND FORKS ND
100 AM CDT THU MAR 23 2017

 **SATELLITE DATA USED TO AUGMENT SKY COVER AT AUTOMATED STATIONS**
 *****  WEATHER ACROSS EASTERN NORTH DAKOTA  *****

CITY           SKY/WX    TMP DP  RH WIND       PRES   REMARKS
GRAND FORKS    CLOUDY    34  21  59 S17G31    30.00F WCI  23
6HR MIN TEMP:  30; 6HR MAX TEMP:  35;

GRAND FRKS AFB MOCLDY    33  25  70 S20G32    29.99F WCI  22
DEVILS LAKE    FAIR      30  25  81 S15       29.92F WCI  19
6HR MIN TEMP:  28; 6HR MAX TEMP:  30;

FARGO          FAIR      36  25  64 S21G32    30.04F
WAHPETON ARPT  FAIR      34  23  64 SE17      30.05F WCI  23
$$

 ***** WEATHER ACROSS CENTRAL AND WESTERN NORTH DAKOTA  *****

CITY           SKY/WX    TMP DP  RH WIND       PRES   REMARKS
BISMARCK       FAIR      34  27  75 SE8       29.85F
6HR MIN TEMP:  33; 6HR MAX TEMP:  44;

MINOT          FAIR      34  29  82 S9        29.80F
6HR MIN TEMP:  34; 6HR MAX TEMP:  40;

JAMESTOWN      FAIR      30  24  78 SE15      29.92F WCI  19
6HR MIN TEMP:  29; 6HR MAX TEMP:  32;

MINOT AFB      FAIR      31  28  90 S6        29.81S
GARRISON         N/A     31  28  89 SE6       29.82F
WILLISTON      FAIR      31  28  89 CALM      29.78S
6HR MIN TEMP:  29; 6HR MAX TEMP:  52;

DICKINSON      FAIR      33  29  85 SE3       29.78R
6HR MIN TEMP:  32; 6HR MAX TEMP:  54;

HETTINGER      FAIR      34  29  82 E7        29.78S
6HR MIN TEMP:  33; 6HR MAX TEMP:  58;

$$

 *****  OTHER AIRPORT OBSERVATIONS IN OUR AREA  *****

CITY           SKY/WX    TMP DP  RH WIND       PRES   REMARKS
WALHALLA       NOT AVBL
GRAFTON AIRPOR CLOUDY    34  27  75 S18G25    30.01F WCI  23
VALLEY CITY AR FAIR      30  30 100 S16       29.96F WCI  19
CANDO          NOT AVBL
CAVALIER APRT  NOT AVBL
GWINNER        CLEAR     32  27  80 MISG      29.97F
SHEYENNE NWR     N/A     32  24  72 S16       29.95S WCI  21
ROLLA          FAIR      25  25 100 S12       29.88F WCI  14
 ***** THE ABOVE OBSERVATIONS ARE NON NWS ARE NOT QUALITY
       CONTROLLED AND MAY MIS-REPORT RAIN FOR SNOW...
$$

  *****  WEATHER ACROSS NORTHERN MINNESOTA  *****

CITY           SKY/WX    TMP DP  RH WIND       PRES   REMARKS
FLAG ISLAND    CLOUDY    28  23  80 SE20      30.08F WCI  15
WARROAD        CLOUDY    32  21  64 SE12      30.07F WCI  23
ROSEAU         MOCLDY    34  21  60 S14       30.05F WCI  24
HALLOCK        CLOUDY    34  27  75 S20       30.00F WCI  22
THF RVR FALLS    N/A    N/A N/A N/A MISG        N/A
BAUDETTE       CLOUDY    31  20  63 SE14      30.10F WCI  21
6HR MIN TEMP:  29; 6HR MAX TEMP:  34; 6HR PCP: TRACE;

WASKISH        CLOUDY    32  18  55 SE9G16    30.11F WCI  24
CROOKSTON      CLOUDY    34  23  64 S16G22    30.03F WCI  23
STEPHEN NDAWN    N/A     34  25  69 S17         N/A  WCI  23
GREENBUSH NDAW   N/A     32  23  69 S12         N/A  WCI  23
$$
  *****  WEATHER ACROSS CENTRAL AND WEST MINNESOTA  *****

CITY           SKY/WX    TMP DP  RH WIND       PRES   REMARKS
FOSSTON        CLOUDY    32  19  59 S17G25    30.06F WCI  21
BEMIDJI        CLOUDY    32  18  56 S16       30.10F WCI  21
PARK RAPIDS    CLOUDY    34  17  50 SE15      30.13F WCI  24
6HR MIN TEMP:  32; 6HR MAX TEMP:  34;

ELBOW LAKE     CLOUDY    35  23  61 SE24G33   30.09F WCI  23
6HR MIN TEMP:  32; 6HR MAX TEMP:  35;

WADENA         CLOUDY    34  21  60 S18       30.11  WCI  23
DETROIT LAKES  CLOUDY    34  23  64 SE16      30.09F WCI  23
MOORHEAD       FAIR      36  23  60 S23G32    30.04F
FERGUS FALLS   CLOUDY    36  21  55 S23G29      N/A
MORRIS MN      CLOUDY    36  25  64 SE21G28   30.08F
STAPLES        CLOUDY    34  18  51 S13G20    30.15F WCI  25
$$
  *****  WEATHER ELSEWHERE ACROSS MINNESOTA  *****

CITY           SKY/WX    TMP DP  RH WIND       PRES   REMARKS
DULUTH         FLURRIES  29  21  72 E12       30.24F WCI  19
6HR MIN TEMP:  25; 6HR MAX TEMP:  29; 6HR PCP: TRACE;

INTRNTL FALLS  MIX PCPN  28  23  81 SE8       30.18F WCI  20
6HR MIN TEMP:  28; 6HR MAX TEMP:  34; 6HR PCP:  0.01;

ELY            CLOUDY    27  16  63 SE8       30.25S WCI  18
CLOQUET        CLOUDY    30  18  59 SE3       30.24S
WHEATON        FAIR      36  25  64 SE21G26   30.07F
BRAINERD       CLOUDY    34  14  43 SE9       30.19F
6HR MIN TEMP:  32; 6HR MAX TEMP:  34; 6HR PCP: TRACE;

HIBBING        CLOUDY    28  17  63 SE10      30.21F WCI  19
6HR MIN TEMP:  27; 6HR MAX TEMP:  32; 6HR PCP: TRACE;

ALEXANDRIA     CLOUDY    35  21  56 S20       30.14F WCI  24
6HR MIN TEMP:  32; 6HR MAX TEMP:  35;

SAINT CLOUD    CLOUDY    35  18  49 SE14      30.20F
6HR MIN TEMP:  35; 6HR MAX TEMP:  36;

MINNEAPOLIS    CLOUDY    36  16  44 SE12      30.26F
6HR MIN TEMP:  36; 6HR MAX TEMP:  38;

$$

  *****  WEATHER ACROSS SOUTH DAKOTA  *****

CITY           SKY/WX    TMP DP  RH WIND       PRES   REMARKS
SIOUX FALLS    CLOUDY    40  27  59 SE16G23   30.08F
6HR MIN TEMP:  39; 6HR MAX TEMP:  40;

BROOKINGS      CLOUDY    37  25  61 S21G28    30.03F
WATERTOWN      FAIR      35  25  66 S22G30    29.99F WCI  23
6HR MIN TEMP:  33; 6HR MAX TEMP:  35;

HURON          FAIR      38  28  67 S20G30    29.96F
6HR MIN TEMP:  37; 6HR MAX TEMP:  40;

SISSETON         N/A     34  27  75 S18       30.02F WCI  23
ABERDEEN       FAIR      36  26  67 S21G29    29.94F
6HR MIN TEMP:  33; 6HR MAX TEMP:  36;

MITCHELL       CLOUDY    43  28  55 SE22      29.99F
PIERRE         FAIR      46  30  53 SE17      29.85S
6HR MIN TEMP:  46; 6HR MAX TEMP:  53;

MOBRIDGE       FAIR      40  27  59 SE16      29.79F
RAPID CITY     FAIR      43  37  79 S10       29.74F
6HR MIN TEMP:  39; 6HR MAX TEMP:  61;

$$

  *****  SOME WEATHER IN NEARBY STATES *****

CITY           SKY/WX    TMP DP  RH WIND       PRES   REMARKS
GLASGOW MT     FAIR      42  35  76 SE10      29.74S
6HR MIN TEMP:  41; 6HR MAX TEMP:  58;

GREAT FALLS MT FAIR      39  25  57 CALM      29.80S
6HR MIN TEMP:  36; 6HR MAX TEMP:  59;

CHEYENNE WY    FAIR      51  37  58 SE13      29.82F
6HR MIN TEMP:  51; 6HR MAX TEMP:  63;

SCOTTSBLUFF NE FAIR      49  36  61 E15       29.78F
6HR MIN TEMP:  49; 6HR MAX TEMP:  68;

OMAHA NE       CLOUDY    46  24  42 SE20      30.14F
6HR MIN TEMP:  45; 6HR MAX TEMP:  49;

DES MOINES IA  CLOUDY    42  17  36 SE13      30.24F
6HR MIN TEMP:  42; 6HR MAX TEMP:  45;

DAVENPORT IA   FAIR      35  19  52 SE16      30.38S
6HR MIN TEMP:  35; 6HR MAX TEMP:  40;

CHICAGO IL     FAIR      31  22  69 E7        30.45F WCI  24
6HR MIN TEMP:  28; 6HR MAX TEMP:  31;

EAU CLAIRE WI  CLOUDY    35  12  38 SE8       30.32F
6HR MIN TEMP:  33; 6HR MAX TEMP:  37;

LA CROSSE WI   CLOUDY    38  17  42 SE13      30.35S
6HR MIN TEMP:  37; 6HR MAX TEMP:  41;

$$

  *****  SOME NATIONAL WEATHER *****

CITY           SKY/WX    TMP DP  RH WIND       PRES   REMARKS
LA GUARDIA NY  FAIR      26   4  38 NW10      30.47S WCI  16
6HR MIN TEMP:  26; 6HR MAX TEMP:  31;

RALEIGH NC     FAIR      39  15  37 E7        30.45S
6HR MIN TEMP:  38; 6HR MAX TEMP:  50;

ATLANTA GA     FAIR      53  32  44 E13       30.29R
6HR MIN TEMP:  53; 6HR MAX TEMP:  61;

NEW ORLEANS LA FAIR      64  62  93 SW3       30.15F
6HR MIN TEMP:  64; 6HR MAX TEMP:  78;

OKLAHOMA CITY  FAIR      62  57  83 SE16      30.03F
6HR MIN TEMP:  62; 6HR MAX TEMP:  66;

ALBUQUERQUE NM MOCLDY    64  14  14 S9        29.92F
6HR MIN TEMP:  63; 6HR MAX TEMP:  80;

SALT LAKE CITY LGT RAIN  50  44  80 VRB7      29.73R
6HR MIN TEMP:  50; 6HR MAX TEMP:  57; 6HR PCP: TRACE;

LOS ANGELES CA FAIR      57  50  77 W12       29.99S
6HR MIN TEMP:  57; 6HR MAX TEMP:  63;

BOISE ID       FAIR


USA.gov is the U.S. government's official web portal to all federal, state and local government web resources and services.